Litchfield, IL

4:29 AM CDT on September 24, 2017 (GMT -0500)
Litchfield

Weather History for K3LF - November, 2013

Change the Weather History Date:

Saturday, November 23, 2013

  Actual Average (KALN) Record (KALN)
Temperature  
Mean Temperature 23 °F -  
Max Temperature 30 °F 50 °F 69 °F (1999)
Min Temperature 16 °F 34 °F 18 °F (2013)
Degree Days  
Heating Degree Days 42    
Moisture  
Dew Point 18 °F    
Average Humidity 75    
Maximum Humidity 96    
Minimum Humidity 60    
Precipitation  
Precipitation 0.01 in - - ()
Sea Level Pressure  
Sea Level Pressure 30.60 in    
Wind  
Wind Speed 14 mph (NNW)    
Max Wind Speed 23 mph    
Max Gust Speed 29 mph    
Visibility 10 miles    
Events      
Averages and records for this station are not official NWS values.
T = Trace of Precipitation, MM = Missing Value Source: NWS Daily Summary

Daily Weather History Graph

Daily Weather History Graph

Search for Another Location

Airport or City:

Trip Planner

Search our weather history database for the weather conditions in past years. The results will help you decide how hot, cold, wet, or windy it might be!

Date:

Astronomy

Nov. 23, 2013 Rise Set
Actual Time 6:51 AM CST 4:39 PM CST
Civil Twilight 6:21 AM CST 5:08 PM CST
Nautical Twilight 5:49 AM CST 5:40 PM CST
Astronomical Twilight 5:17 AM CST 6:12 PM CST
Moon 10:06 PM CST (11/23) 11:08 AM CST (11/23)
Length of Visible Light 10h 46m
Length of Day
9h 48m
Waning Gibbous, 69% of the Moon is Illuminated
Nov 23
Waning Gibbous
Nov 25
Last Quarter
Dec 2
New
Dec 9
First Quarter
Dec 17
Full

Hourly Weather History & Observations

Time (CST) Temp. Windchill Dew Point Humidity Pressure Visibility Wind Dir Wind Speed Gust Speed Precip Events Conditions
12:15 AM 30.2 °F 21.3 °F 29.1 °F 96% 30.50 in 10.0 mi NNW 10.4 mph - N/A   Clear
12:35 AM 30.2 °F 21.3 °F 28.8 °F 94% 30.50 in 10.0 mi NNW 10.4 mph - N/A   Clear
12:55 AM 30.2 °F 21.9 °F 28.4 °F 93% 30.50 in 10.0 mi NNW 9.2 mph - N/A   Clear
1:15 AM 30.0 °F 21.1 °F 28.2 °F 93% 30.51 in 10.0 mi NNW 10.4 mph - N/A   Clear
1:35 AM 29.8 °F 19.3 °F 28.2 °F 94% 30.51 in 10.0 mi NNW 13.8 mph - N/A   Clear
1:55 AM 29.3 °F 18.2 °F 27.5 °F 93% 30.52 in 10.0 mi NNW 15.0 mph - N/A   Scattered Clouds
2:15 AM 29.1 °F 18.9 °F 27.3 °F 93% 30.52 in 10.0 mi NNW 12.7 mph 16.1 mph N/A   Scattered Clouds
2:35 AM 28.9 °F 19.2 °F 27.0 °F 92% 30.51 in 10.0 mi NNW 11.5 mph - N/A   Clear
2:55 AM 28.4 °F 18.0 °F 26.6 °F 93% 30.51 in 10.0 mi NNW 12.7 mph - N/A   Clear
3:15 AM 28.4 °F 19.1 °F 25.9 °F 90% 30.51 in 10.0 mi NNW 10.4 mph - N/A   Clear
3:35 AM 27.9 °F 17.8 °F 25.3 °F 90% 30.51 in 10.0 mi NNW 11.5 mph - N/A   Clear
3:55 AM 28.2 °F 19.5 °F 25.0 °F 88% 30.51 in 10.0 mi NW 9.2 mph - N/A   Clear
4:15 AM 28.2 °F 18.3 °F 24.8 °F 87% 30.51 in 10.0 mi NW 11.5 mph - N/A   Clear
4:35 AM 28.0 °F 19.3 °F 23.7 °F 84% 30.51 in 10.0 mi NW 9.2 mph - N/A   Clear
4:55 AM 28.0 °F 18.6 °F 23.2 °F 82% 30.51 in 10.0 mi NW 10.4 mph - N/A   Clear
5:15 AM 28.0 °F 18.6 °F 19.9 °F 72% 30.52 in 10.0 mi NW 10.4 mph - N/A   Clear
5:35 AM 27.5 °F 17.4 °F 18.9 °F 70% 30.52 in 10.0 mi NNW 11.5 mph - N/A   Clear
5:55 AM 27.1 °F 16.9 °F 18.5 °F 70% 30.53 in 10.0 mi NNW 11.5 mph 16.1 mph N/A   Clear
6:15 AM 26.6 °F 20.0 °F 19.8 °F 75% 30.53 in 10.0 mi NW 5.8 mph - N/A   Clear
6:35 AM 26.6 °F 16.8 °F 20.5 °F 78% 30.53 in 10.0 mi NW 10.4 mph - N/A   Clear
6:55 AM 26.4 °F 15.5 °F 20.3 °F 78% 30.54 in 10.0 mi NW 12.7 mph 16.1 mph N/A   Clear
7:15 AM 26.6 °F 16.2 °F 20.5 °F 78% 30.55 in 10.0 mi NW 11.5 mph - N/A   Clear
7:35 AM 26.4 °F 19.8 °F 20.5 °F 78% 30.56 in 10.0 mi NW 5.8 mph - N/A   Clear
7:55 AM 26.2 °F 14.2 °F 19.9 °F 77% 30.57 in 10.0 mi NW 15.0 mph 19.6 mph N/A   Clear
8:15 AM 25.7 °F 13.1 °F 19.4 °F 77% 30.57 in 10.0 mi NW 16.1 mph - N/A   Clear
8:35 AM 25.9 °F 13.8 °F 19.9 °F 78% 30.58 in 10.0 mi NW 15.0 mph 19.6 mph N/A   Clear
8:55 AM 26.6 °F 13.1 °F 20.1 °F 77% 30.58 in 10.0 mi NNW 19.6 mph 24.2 mph N/A   Clear
9:15 AM 26.6 °F 13.8 °F 20.1 °F 77% 30.58 in 10.0 mi NNW 17.3 mph 21.9 mph N/A   Clear
9:35 AM 26.6 °F 13.4 °F 19.9 °F 76% 30.59 in 10.0 mi NNW 18.4 mph - N/A   Clear
9:55 AM 26.6 °F 12.7 °F 19.6 °F 75% 30.60 in 10.0 mi NNW 20.7 mph 25.3 mph N/A   Clear
10:15 AM 27.5 °F 14.6 °F 20.5 °F 75% 30.60 in 10.0 mi NNW 18.4 mph 26.5 mph N/A   Scattered Clouds
10:35 AM 27.5 °F 14.6 °F 20.1 °F 74% 30.60 in 10.0 mi NW 18.4 mph - N/A   Clear
10:55 AM 27.5 °F 14.2 °F 19.0 °F 71% 30.59 in 10.0 mi NNW 19.6 mph 23.0 mph N/A   Clear
11:15 AM 29.5 °F 16.5 °F 19.4 °F 66% 30.59 in 10.0 mi NNW 20.7 mph - N/A   Clear
11:35 AM 28.4 °F 15.4 °F 18.1 °F 65% 30.59 in 10.0 mi NNW 19.6 mph 24.2 mph N/A   Clear
11:55 AM 28.4 °F 14.7 °F 17.2 °F 63% 30.59 in 10.0 mi NNW 21.9 mph 26.5 mph N/A   Clear
12:15 PM 27.7 °F 13.8 °F 16.2 °F 62% 30.59 in 10.0 mi NW 21.9 mph 26.5 mph N/A   Clear
12:35 PM 28.9 °F 15.8 °F 17.1 °F 61% 30.59 in 10.0 mi NNW 20.7 mph 28.8 mph N/A   Scattered Clouds
12:55 PM 29.7 °F 17.1 °F 17.8 °F 61% 30.60 in 10.0 mi NNW 19.6 mph 27.6 mph N/A   Scattered Clouds
1:15 PM 28.6 °F 15.0 °F 16.7 °F 61% 30.60 in 10.0 mi NNW 21.9 mph - N/A   Scattered Clouds
1:35 PM 27.3 °F 14.0 °F 15.6 °F 61% 30.60 in 10.0 mi North 19.6 mph 25.3 mph N/A   Scattered Clouds
1:55 PM 28.8 °F 15.5 °F 17.8 °F 64% 30.61 in 10.0 mi NNW 20.7 mph - N/A   Scattered Clouds
2:15 PM 27.5 °F 13.2 °F 15.8 °F 61% 30.61 in 10.0 mi NNW 23.0 mph 27.6 mph N/A   Scattered Clouds
2:35 PM 26.4 °F 12.8 °F 14.4 °F 60% 30.62 in 10.0 mi NNW 19.6 mph 27.6 mph N/A   Scattered Clouds
2:55 PM 25.9 °F 12.1 °F 14.5 °F 62% 30.63 in 10.0 mi NNW 19.6 mph - N/A   Scattered Clouds
3:15 PM 25.7 °F 12.3 °F 15.3 °F 65% 30.64 in 10.0 mi North 18.4 mph 26.5 mph N/A   Mostly Cloudy
3:35 PM 24.4 °F 10.2 °F 14.0 °F 65% 30.65 in 10.0 mi NNW 19.6 mph 24.2 mph N/A   Scattered Clouds
3:55 PM 24.6 °F 11.7 °F 14.4 °F 65% 30.65 in 10.0 mi North 16.1 mph 24.2 mph N/A   Mostly Cloudy
4:15 PM 23.9 °F 9.1 °F 14.0 °F 66% 30.66 in 10.0 mi North 20.7 mph - N/A   Scattered Clouds
4:35 PM 23.0 °F 7.6 °F 13.5 °F 67% 30.66 in 10.0 mi North 21.9 mph 26.5 mph N/A   Scattered Clouds
4:55 PM 22.1 °F 8.0 °F 13.6 °F 70% 30.67 in 10.0 mi NNW 17.3 mph - N/A   Scattered Clouds
5:15 PM 21.7 °F 7.5 °F 13.1 °F 69% 30.67 in 10.0 mi NNW 17.3 mph 23.0 mph N/A   Clear
5:35 PM 21.6 °F 7.8 °F 12.9 °F 69% 30.68 in 10.0 mi NNW 16.1 mph - N/A   Scattered Clouds
5:55 PM 21.2 °F 6.8 °F 13.1 °F 71% 30.68 in 10.0 mi NNW 17.3 mph - N/A   Scattered Clouds
6:15 PM 21.0 °F 7.1 °F 13.5 °F 73% 30.68 in 10.0 mi NNW 16.1 mph - N/A   Clear
6:35 PM 20.8 °F 6.4 °F 13.5 °F 73% 30.68 in 10.0 mi North 17.3 mph 21.9 mph N/A   Clear
6:55 PM 20.3 °F 6.6 °F 13.1 °F 74% 30.69 in 10.0 mi NNW 15.0 mph 19.6 mph N/A   Clear
7:15 PM 20.1 °F 5.4 °F 12.6 °F 73% 30.69 in 10.0 mi NNW 17.3 mph 21.9 mph N/A   Clear
7:35 PM 19.8 °F 6.5 °F 12.6 °F 74% 30.70 in 10.0 mi NNW 13.8 mph 19.6 mph N/A   Clear
7:55 PM 19.4 °F 6.6 °F 12.7 °F 75% 30.70 in 10.0 mi NNW 12.7 mph - N/A   Clear
8:15 PM 19.2 °F 6.4 °F 12.2 °F 74% 30.71 in 10.0 mi NNW 12.7 mph - N/A   Clear
8:35 PM 19.0 °F 6.1 °F 12.2 °F 75% 30.70 in 10.0 mi NNW 12.7 mph - N/A   Clear
8:55 PM 18.9 °F 5.3 °F 12.0 °F 75% 30.70 in 10.0 mi NNW 13.8 mph - N/A   Clear
9:15 PM 18.5 °F 5.5 °F 12.2 °F 76% 30.71 in 10.0 mi NNW 12.7 mph - N/A   Clear
9:35 PM 18.5 °F 5.5 °F 11.7 °F 75% 30.71 in 10.0 mi NNW 12.7 mph - N/A   Clear
9:55 PM 18.1 °F 6.3 °F 12.0 °F 77% 30.71 in 10.0 mi North 10.4 mph - N/A   Clear
10:15 PM 18.1 °F 5.6 °F 11.7 °F 76% 30.70 in 10.0 mi North 11.5 mph - N/A   Clear
10:35 PM 18.0 °F 6.1 °F 11.5 °F 76% 30.70 in 10.0 mi North 10.4 mph - N/A   Clear
10:55 PM 17.6 °F 5.7 °F 11.3 °F 76% 30.71 in 10.0 mi North 10.4 mph - N/A   Clear
11:15 PM 17.4 °F 5.4 °F 11.1 °F 76% 30.70 in 10.0 mi North 10.4 mph - N/A   Clear
11:35 PM 16.9 °F 5.5 °F 11.3 °F 79% 30.70 in 10.0 mi North 9.2 mph - N/A   Clear
11:55 PM 16.3 °F 5.7 °F 11.3 °F 81% 30.71 in 10.0 mi North 8.1 mph - N/A   Clear